• In Moldova, Republic
  • List of Countries
  • For 7 days
  • Water Temperature
  • Satellite Maps
  • Weather Map
  • Weather Widgets
  • user-avatar
    Login

    Hourly Weather Buda-Koshelovo

    Today, 15 August, Wednesday

    Time Temperature Precipitation Wind Pressure Humidity
    00:00 +22°C° 0.7 mm 3 mps 746 mmHg 71%
    01:00 +21°C° 0.7 mm 3 mps 746 mmHg 72%
    02:00 +21°C° 0 mm 3 mps 745 mmHg 75%
    03:00 +20°C° 0.8 mm 3 mps 745 mmHg 78%
    04:00 +20°C° 0.8 mm 3 mps 745 mmHg 82%
    05:00 +19°C° 0.8 mm 3 mps 745 mmHg 85%
    06:00 +20°C° 0.2 mm 3 mps 746 mmHg 82%
    07:00 +22°C° 0.2 mm 3 mps 746 mmHg 79%
    08:00 +25°C° 0 mm 3 mps 746 mmHg 75%
    09:00 +26°C° 0.9 mm 4 mps 746 mmHg 71%
    10:00 +27°C° 0.9 mm 4 mps 746 mmHg 68%
    11:00 +28°C° 0.9 mm 4 mps 746 mmHg 64%
    12:00 +28°C° 0.9 mm 4 mps 746 mmHg 62%
    13:00 +28°C° 0.9 mm 4 mps 746 mmHg 60%
    14:00 +29°C° 0 mm 4 mps 746 mmHg 56%
    15:00 +28°C° 0.3 mm 4 mps 746 mmHg 59%
    16:00 +28°C° 0.3 mm 3 mps 747 mmHg 62%
    17:00 +27°C° 0.3 mm 3 mps 747 mmHg 65%
    18:00 +25°C° 0.4 mm 3 mps 747 mmHg 70%
    19:00 +22°C° 0.4 mm 3 mps 747 mmHg 76%
    20:00 +20°C° 0.4 mm 3 mps 747 mmHg 82%
    21:00 +20°C° 0.4 mm 2 mps 747 mmHg 83%
    22:00 +19°C° 0.4 mm 2 mps 748 mmHg 84%
    23:00 +20°C° 0.4 mm 1 mps 748 mmHg 86%

    Tomorrow, 16 August, Thursday

    Time Temperature Precipitation Wind Pressure Humidity
    00:00 +18°C° 0 mm 2 mps 748 mmHg 87%
    01:00 +18°C° 0 mm 2 mps 748 mmHg 89%
    02:00 +18°C° 0 mm 2 mps 748 mmHg 91%
    03:00 +17°C° 0 mm 2 mps 748 mmHg 92%
    04:00 +17°C° 0 mm 2 mps 749 mmHg 93%
    05:00 +18°C° 0 mm 1 mps 749 mmHg 94%
    06:00 +19°C° 0 mm 1 mps 749 mmHg 89%
    07:00 +20°C° 0 mm 1 mps 749 mmHg 84%
    08:00 +22°C° 0 mm 1 mps 749 mmHg 79%
    09:00 +23°C° 0 mm 2 mps 749 mmHg 73%
    10:00 +25°C° 0 mm 2 mps 750 mmHg 67%
    11:00 +26°C° 0 mm 2 mps 750 mmHg 61%
    12:00 +26°C° 0 mm 2 mps 750 mmHg 60%
    13:00 +26°C° 0 mm 2 mps 750 mmHg 59%
    14:00 +27°C° 0 mm 2 mps 750 mmHg 58%
    15:00 +26°C° 0.2 mm 2 mps 750 mmHg 62%
    16:00 +26°C° 0.2 mm 2 mps 749 mmHg 65%
    17:00 +26°C° 0.2 mm 2 mps 749 mmHg 68%
    18:00 +24°C° 0.1 mm 2 mps 750 mmHg 73%
    19:00 +23°C° 0.1 mm 2 mps 750 mmHg 79%
    20:00 +21°C° 0.1 mm 1 mps 750 mmHg 84%
    21:00 +21°C° 0 mm 1 mps 750 mmHg 86%
    22:00 +20°C° 0 mm 1 mps 750 mmHg 89%
    23:00 +19°C° 0 mm 1 mps 750 mmHg 91%

    Day after tomorrow, 17 August, Friday

    Time Temperature Precipitation Wind Pressure Humidity
    00:00 +19°C° 0 mm 1 mps 750 mmHg 92%
    01:00 +19°C° 0 mm 1 mps 750 mmHg 93%
    02:00 +18°C° 0 mm 1 mps 750 mmHg 94%
    03:00 +18°C° 0 mm 1 mps 750 mmHg 94%
    04:00 +18°C° 0 mm 1 mps 751 mmHg 95%
    05:00 +18°C° 0 mm 1 mps 751 mmHg 95%
    06:00 +19°C° 0 mm 1 mps 751 mmHg 91%
    07:00 +21°C° 0 mm 1 mps 751 mmHg 86%
    08:00 +22°C° 0 mm 1 mps 751 mmHg 81%
    09:00 +24°C° 0 mm 2 mps 751 mmHg 75%
    10:00 +25°C° 0 mm 2 mps 751 mmHg 69%
    11:00 +26°C° 0 mm 2 mps 751 mmHg 63%
    12:00 +27°C° 0.2 mm 2 mps 751 mmHg 61%
    13:00 +27°C° 0.2 mm 2 mps 750 mmHg 59%
    14:00 +28°C° 0.2 mm 2 mps 750 mmHg 58%
    15:00 +27°C° 0.4 mm 2 mps 750 mmHg 62%
    16:00 +27°C° 0.4 mm 2 mps 750 mmHg 66%
    17:00 +26°C° 0.4 mm 2 mps 750 mmHg 70%
    18:00 +25°C° 0.4 mm 2 mps 750 mmHg 76%
    19:00 +23°C° 0.4 mm 2 mps 750 mmHg 82%
    20:00 +21°C° 0.4 mm 2 mps 750 mmHg 88%
    21:00 +20°C° 0.1 mm 2 mps 750 mmHg 90%
    22:00 +20°C° 0.1 mm 2 mps 750 mmHg 91%
    23:00 +19°C° 0.1 mm 2 mps 750 mmHg 93%

    18 August, Saturday

    Time Temperature Precipitation Wind Pressure Humidity
    00:00 +19°C° 0.1 mm 2 mps 750 mmHg 94%
    01:00 +19°C° 0.1 mm 2 mps 750 mmHg 94%
    02:00 +19°C° 0.1 mm 2 mps 750 mmHg 95%
    03:00 +18°C° 0.1 mm 2 mps 750 mmHg 95%
    04:00 +18°C° 0.1 mm 2 mps 750 mmHg 96%
    05:00 +18°C° 0.1 mm 2 mps 750 mmHg 96%
    06:00 +19°C° 0 mm 3 mps 751 mmHg 93%
    07:00 +20°C° 0 mm 3 mps 751 mmHg 90%
    08:00 +21°C° 0 mm 3 mps 751 mmHg 86%
    09:00 +22°C° 0.6 mm 3 mps 751 mmHg 82%
    10:00 +24°C° 0.6 mm 3 mps 751 mmHg 77%
    11:00 +26°C° 0.6 mm 4 mps 750 mmHg 73%
    12:00 +26°C° 1 mm 3 mps 750 mmHg 71%
    13:00 +26°C° 1 mm 3 mps 750 mmHg 70%
    14:00 +27°C° 1 mm 3 mps 750 mmHg 69%
    15:00 +27°C° 0.8 mm 3 mps 750 mmHg 71%
    16:00 +26°C° 0.8 mm 2 mps 750 mmHg 73%
    17:00 +26°C° 0.8 mm 2 mps 750 mmHg 75%
    18:00 +25°C° 0.4 mm 2 mps 750 mmHg 79%
    19:00 +24°C° 0.4 mm 2 mps 750 mmHg 83%
    20:00 +21°C° 0.4 mm 2 mps 750 mmHg 87%
    21:00 +21°C° 0.1 mm 2 mps 750 mmHg 88%
    22:00 +20°C° 0.1 mm 2 mps 750 mmHg 89%
    23:00 +20°C° 0.1 mm 2 mps 750 mmHg 90%

    19 August, Sunday

    Time Temperature Precipitation Wind Pressure Humidity
    00:00 +19°C° 0.1 mm 2 mps 750 mmHg 91%
    01:00 +19°C° 0.1 mm 2 mps 750 mmHg 91%
    02:00 +19°C° 0.1 mm 2 mps 750 mmHg 92%
    03:00 +20°C° 0 mm 1 mps 750 mmHg 92%
    04:00 +19°C° 0 mm 1 mps 750 mmHg 92%
    05:00 +19°C° 0 mm 1 mps 750 mmHg 93%
    06:00 +21°C° 0 mm 1 mps 750 mmHg 89%
    07:00 +22°C° 0 mm 1 mps 750 mmHg 85%
    08:00 +23°C° 0 mm 1 mps 751 mmHg 82%
    09:00 +24°C° 0.8 mm 1 mps 750 mmHg 77%
    10:00 +26°C° 0.8 mm 2 mps 750 mmHg 72%
    11:00 +27°C° 0.8 mm 2 mps 750 mmHg 67%
    12:00 +27°C° 1 mm 2 mps 750 mmHg 64%
    13:00 +28°C° 1 mm 2 mps 750 mmHg 61%
    14:00 +28°C° 1 mm 2 mps 750 mmHg 58%
    15:00 +28°C° 0.3 mm 1 mps 750 mmHg 60%
    16:00 +28°C° 0.3 mm 1 mps 750 mmHg 61%
    17:00 +28°C° 0.3 mm 1 mps 749 mmHg 63%
    18:00 +26°C° 0.1 mm 1 mps 749 mmHg 67%
    19:00 +24°C° 0.1 mm 1 mps 750 mmHg 72%
    20:00 +22°C° 0.1 mm 1 mps 750 mmHg 76%
    21:00 +22°C° 0 mm 1 mps 750 mmHg 78%
    22:00 +21°C° 0 mm 1 mps 750 mmHg 80%
    23:00 +21°C° 0 mm 1 mps 750 mmHg 82%

    20 August, Monday

    Time Temperature Precipitation Wind Pressure Humidity
    00:00 +20°C° 0 mm 1 mps 750 mmHg 83%
    01:00 +20°C° 0 mm 1 mps 750 mmHg 85%
    02:00 +19°C° 0 mm 1 mps 750 mmHg 86%
    03:00 +19°C° 0 mm 1 mps 750 mmHg 88%
    04:00 +19°C° 0 mm 1 mps 750 mmHg 89%
    05:00 +18°C° 0 mm 1 mps 750 mmHg 91%
    06:00 +20°C° 0 mm 1 mps 750 mmHg 86%
    07:00 +20°C° 0 mm 2 mps 750 mmHg 82%
    08:00 +21°C° 0 mm 2 mps 750 mmHg 78%
    09:00 +23°C° 0 mm 2 mps 750 mmHg 72%
    10:00 +25°C° 0 mm 2 mps 750 mmHg 66%
    11:00 +26°C° 0 mm 2 mps 750 mmHg 61%
    12:00 +26°C° 0 mm 2 mps 750 mmHg 58%
    13:00 +27°C° 0 mm 2 mps 750 mmHg 55%
    14:00 +27°C° 0 mm 2 mps 750 mmHg 51%
    15:00 +27°C° 0.1 mm 2 mps 750 mmHg 54%
    16:00 +27°C° 0.1 mm 2 mps 750 mmHg 57%
    17:00 +26°C° 0.1 mm 2 mps 750 mmHg 60%
    18:00 +25°C° 0 mm 2 mps 750 mmHg 66%
    19:00 +23°C° 0 mm 2 mps 750 mmHg 73%
    20:00 +20°C° 0 mm 2 mps 750 mmHg 79%
    21:00 +20°C° 0 mm 2 mps 750 mmHg 82%
    22:00 +20°C° 0 mm 1 mps 750 mmHg 84%
    23:00 +20°C° 0 mm 1 mps 750 mmHg 86%
    Show more